Location: Livorno
(43.5500°N, 10.3170°E)
Time: 19:22:21
(UTC+01:00)

Envisat - Pass Details

Date: 29 October 2020
Orbit: 764 x 766 km, 98.1° (Epoch: 05 December)

Event Time Altitude Azimuth Distance (km) Brightness Sun altitude
Rises 18:00:19 0° 186° (S) 3,219 6.4 -9.1°
Reaches altitude 10° 18:02:44 10° 193° (SSW) 2,297 5.8 -9.5°
Maximum altitude 18:07:29 40° 263° (W) 1,129 4.6 -10.3°
Drops below altitude 10° 18:12:15 10° 332° (NNW) 2,313 5.7 -11.2°
Sets 18:14:43 0° 340° (NNW) 3,243 6.4 -11.6°
